STARLINK-35730, 66273

Orbit data source: Space-Track

STARLINK-35730, 66273 is a payload satellite owned by SpaceX/Seattle (US) in LEO that was launched on Fri, 31 Oct 2025 UTC via an FALCON 9 launch vehicle from the Air Force Western Test Range (AFWTR). Payload-class satellites include a variety of spacecraft equipped with specific instruments for various scientific and technological missions. These include communications satellites like Starlink; space stations such as the ISS; scientific satellites like the Hubble; Earth observation satellites from companies like Planet Labs, Umbra, and HawkEye 360; GPS; miniature CubeSats for education and research; and military/defense satellites.

Loading next visibility...
Identifier
66273, 2025-247J
Orbit
LEO
Country
Flag of USUS
Related business
Manufacturer
SpaceX/Seattle
Mission
Operational Commercial Communications
Bus & Motor
STARLINK V2MO, Unknown motor
Mass
575 kg wet, ~530 kg dry
Launch date (UTC)
2025-10-31 (8 months ago)
Launch vehicle
FALCON 9
Launch site
Air Force Western Test Range (AFWTR)
Object type
Payload
Rocket body
Debris
Shape & HBR
Box + 2 Pan, 17.7 m
Radar Cross Section
36.964 m², Large (>1 m²)

Expand to show TLE details & history
Last TLE update: 11 hours ago

TLE from 11 hours ago
0 STARLINK-35730
1 66273U 25247J   26171.45216997  .00033818  00000-0  10064-2 0  9990
2 66273  53.1598  72.2409 0001333  84.1691 275.9463 15.34433677 36840
Epoch: 2026-06-20T10:51Z
TLE epoch observation values (Epoch: 2026-06-20T10:51:07.485Z)
Latitude
-0.00006°
Longitude
0.79308°
Altitude
463.41 km
Speed
7.636 km/s
True Right ascension
04h 48m 57s
True Declination
0° 00' 00"
Sunlit
Object was in daylight at epoch
Visualization orbit readout
Latitude
Unknown
Longitude
Unknown
Altitude
Unknown
Speed
Unknown
Apparent Right ascension
Unknown
Apparent Declination
Unknown
Sunlit
N/A
Visualization observer readout
Local Sidereal Time
08:33:26
Azimuth
Unknown
Elevation
Unknown
Doppler factor
Unknown
Orbital elements
Apogee altitude
463.772 km
Perigee altitude
461.948 km
Semi-major axis
6,840.997 km
Eccentricity
0.00013
Inclination
53.1598°
RAAN
72.2409°
Arg. of periapsis
84.1691°
True anomaly
275.93111°
Mean anomaly
275.9463°
Eccentric anomaly
275.9387°
Mean motion
3.83587 °/min
Orbital period
93.85 mins
BSTAR
0.0010064
Loading maneuver chart data...
Computing Atmospheric mass density...
Loading historical data...
Loading historical data...
Loading historical data...
Loading historical data...
Loading historical data...
Loading historical data...
Loading historical data...

Documentation

Showing up to 5 results
|